Other Surface Observations
Issued by NWS Jacksonville, FL

Home | Current Version | Previous Version | Text Only | Print | Product List | Glossary On
Versions: 1 2 3 4 5 6 7 8 9 10 11 12 13 14 15 16 17 18 19 20 21 22 23 24 25 26 27 28 29 30 31 32 33 34 35 36 37 38 39 40 41 42 43 44 45 46 47 48 49 50
000
SXUS52 KJAX 070213
OSOJAX
OTHER SURFACE OBSERVATIONS
NATIONAL WEATHER SERVICE JACKSONVILLE FL
900 PM EST SAT FEB 06 2016

FLZ020>025-030>033-035>038-040-070300-
...FLORIDA...

CITY           SKY/WX    TMP DP  RH WIND       PRES   REMARKS
CECIL FIELD    LGT RAIN  45  43  93 N17       30.11F WCI  37
HERLONG FIELD  NOT AVBL
FERNANDINA BCH NOT AVBL
LAKE CITY      DRIZZLE   41  41 100 N7        30.14R WCI  36
JUNIPER SPGS   NOT AVBL
BUNNELL        NOT AVBL
KEYSTONE HGTS  CLOUDY    45  45 100 N10       30.11S
$$

GAZ132>136-149>154-162>166-070300-
...GEORGIA...

CITY           SKY/WX    TMP DP  RH WIND       PRES   REMARKS
JESUP          RAIN      43  43 100 N10G17    30.16F WCI  37
HOMERVILLE     CLOUDY    43  41  93 NE5       30.16F
SWAINSBORO     CLOUDY    41  37  87 NE5       30.22F WCI  38
CORDELE        NOT AVBL
EASTMAN        CLOUDY    43  33  69 CALM      30.23F
$$

PLEASE NOTE:  THESE OBSERVATIONS ARE NOT QUALITY CONTROLLED AND MAY
NOT BE AVAILABLE AT ALL TIMES.
$$



USA.gov is the U.S. government's official web portal to all federal, state and local government web resources and services.